P/2000 S1 ( Skiff )

Japanese version
Home page
Updated on January 3, 2001

---------------------------------------------------------------------

* Profile

Discovery Date September 24, 2000
Magnitude 14.8 mag
Discoverer B. A. Skiff (Lowell Observatory)

* Orbital Elements

T 2000 July 8.217 TT                                    Marsden
q   2.48410              (2000.0)            P               Q
n   0.057547       Peri.  305.699       +0.882287       +0.437285
a   6.64442        Node    29.547       -0.228253       +0.721137
e   0.62614        Incl.   20.689       -0.411668       +0.537347
P  17.1
From 30 observations 2000 Aug. 26-Sept. 26.

* Finding Charts

* Magnitudes Graph

        m1 = 0.0 + 5 log d + 35 log r

---------------------------------------------------------------------

The orbital elements are calculated by Dr. Brian G. Marsden and printed on M.P.E.C. 2000-S60.
The charts are made with StellaNavigator Ver.2.0 for Windows (AstroArts / ASCII).
The magnitudes graphs are made with Comet for Windows.

---------------------------------------------------------------------

Copyright(C) Seiichi Yoshida (comet@aerith.net). All rights reserved.